Regional Weather Roundup
Issued by NWS

Home | Current Version | Previous Version | Text Only | Print | Product List | Glossary On
Versions: 1 2 3 4 5 6 7 8 9 10 11 12 13 14 15 16 17 18 19 20 21 22 23 24 25 26 27 28 29 30 31 32 33 34 35 36 37 38 39 40 41 42 43 44 45 46 47 48 49 50
000
ASUS43 KLOT 260909
RWRIL

ILLINOIS REGIONAL WEATHER ROUNDUP
NATIONAL WEATHER SERVICE CHICAGO/ROMEOVILLE IL
400 AM CDT MON AUG 26 2019

NOTE: "FAIR" INDICATES FEW OR NO CLOUDS BELOW 12,000 FEET WITH NO
SIGNIFICANT WEATHER AND/OR OBSTRUCTIONS TO VISIBILITY.

* THESE STATIONS ARE NOT UNDER NWS QUALITY CONTROL. THEY ALSO MAY NOT
  REPORT WEATHER SUCH AS PRECIPITATION OR FOG.

ILZ001-002-007-009-015-016-024-261000-
NORTHWEST ILLINOIS

CITY           SKY/WX    TMP DP  RH WIND       PRES   REMARKS
MOLINE         LGT RAIN  65  63  93 E9        29.80F
STERLING*      LGT RAIN  64  64 100 MISG        N/A
SAVANNA*       RAIN      63  61  94 E7        29.85F
$$

ILZ003-004-008-010-011-017-018-261000-
NORTH CENTRAL ILLINOIS

CITY           SKY/WX    TMP DP  RH WIND       PRES   REMARKS
ROCKFORD       LGT RAIN  66  62  87 E7        29.89F
FREEPORT*      LGT RAIN  62  62 100 E7        29.89F
ROCHELLE*      CLOUDY    63  63  99 E5        29.88F
DE KALB*       LGT RAIN  64  64  98 E5        29.89S
PERU*          CLOUDY    64  62  94 E7        29.84F
$$

ILZ005-006-012>014-019>023-261000-
NORTHEAST ILLINOIS

CITY           SKY/WX    TMP DP  RH WIND       PRES   REMARKS
CHICAGO-OHARE  CLOUDY    68  62  81 E7        29.88F
CHICAGO-MIDWAY CLOUDY    68  61  78 E6        29.88F
AURORA         CLOUDY    66  61  84 E8        29.87F
LANSING*       CLOUDY    68  59  73 SE7       29.89F
JOLIET*        CLOUDY    68  65  92 E8        29.87F
WAUKEGAN       LGT RAIN  67  62  84 SE6       29.91S
DUPAGE AIRPORT LGT RAIN  67  61  81 E6        29.88F
KANKAKEE*      CLOUDY    68  60  74 SE12      29.87F
WHEELING       CLOUDY    68  63  84 E6        29.91F
MORRIS*        CLOUDY    65  64  96 E6        29.85F
ROMEOVILLE*    CLOUDY    66  62  85 SE6       29.87F
NORTHERLY ISL    N/A     69  60  73 SE8         N/A
$$

LMZ740>746-261000-
SOUTHERN LAKE MICHIGAN

STATION/POSITION SKY/WX   TEMP    WIND        PRES    VSBY  WAVE
                          AIR SEA DIR/SP/G                  HT/PER
                          (F)     (DEG/KT/KT) (MB)    (MI)  (FT/S)
SOUTHERN BUOY              69 71  120/ 17/ 21 1013.7F         4/ 5
WINTHROP HARBOR            73 72  150/ 12/ 17   N/A           4/ 5
WAUKEGAN HARBOR            69 72  110/ 12/ 16   N/A           4/ 5
WILMETTE HARBOR               72  120/ 14/ 17 1010.9          4/ 5
HARRISON CRIB              71     140/ 14/ 16   N/A
NORTHERLY ISL              68     120/  8/ 13   N/A
CALUMET HARBOR             70     110/  7/ 14 1011.7F
BURNS HARBOR               69     130/  6/ 11 1012.9F
MICHIGAN CITY              68     130/ 11/ 12   N/A
MICHIGAN CITY 6N           66 63  130/ 14/ 17   N/A           1/ 2
ST. JOSEPH                 64 58  100/ 12/ 16 1013.5          1/ 2
$$

ILZ025>027-034>036-040-047-049-050-058-095>099-261000-
WEST-CENTRAL ILLINOIS

CITY           SKY/WX    TMP DP  RH WIND       PRES   REMARKS
QUINCY         LGT RAIN  69  67  93 S10       29.74S
GALESBURG*     HVY RAIN  66  66 100 E7        29.79F
MACOMB*        RAIN      67  67 100 E7G18     29.78S
JACKSONVILLE*  TSTM      72  70  96 S10G17    29.77F
PITTSFIELD*    CLOUDY    69  69 100 S8        29.77S
$$

ILZ028>032-037-038-041>044-048-051>054-059>061-261000-
CENTRAL ILLINOIS

CITY           SKY/WX    TMP DP  RH WIND       PRES   REMARKS
PONTIAC        CLOUDY    66  65  97 CALM      29.85S THUNDER
BLOOMINGTON    TSTM      68  67  96 SE12      29.85R FOG
DECATUR        LGT RAIN  71  68  90 SE8       29.83S
PEORIA         TSTM      68  66  93 SE10G21   29.80F FOG
LACON*         RAIN      65  64  96 E3        29.81F
LINCOLN*       CLOUDY    71  71 100 SE7       29.80F
SPRINGFIELD    CLOUDY    72  71  97 S8        29.79S
TAYLORVILLE    CLOUDY    71  70  99 SE8       29.82R
$$

ILZ033-039-045-046-055>057-062-063-261000-
EAST-CENTRAL ILLINOIS

CITY           SKY/WX    TMP DP  RH WIND       PRES   REMARKS
CHAMPAIGN      CLOUDY    68  67  96 SE7       29.85S
DANVILLE*      CLOUDY    70  66  87 SE7       29.86F
RANTOUL*       CLOUDY    68  68  99 SE8       29.86S
MATTOON        CLOUDY    71  69  93 S13G22    29.84S
PARIS*         CLOUDY    72  71  97 SE7       29.87F
$$

ILZ079-100>102-261000-
SOUTHWEST ILLINOIS

CITY           SKY/WX    TMP DP  RH WIND       PRES   REMARKS
ALTON          CLOUDY    71  71 100 SE6       29.81R
BELLEVILLE     MOCLDY    72  71  99 SE6       29.79S
CAHOKIA*       CLOUDY    72  70  93 SE5       29.79S
SPARTA*        CLOUDY    72  71  99 S8        29.82S
$$

ILZ064>066-069>071-074>076-080>082-084>086-088>090-092>094-261000-
SOUTH-CENTRAL ILLINOIS

CITY           SKY/WX    TMP DP  RH WIND       PRES   REMARKS
CARBONDALE     CLOUDY    73  69  87 S7        29.84S
CAIRO*         CLOUDY    72  71  96 S8        29.85S
EFFINGHAM*     LGT RAIN  72  67  86 SE7       29.86S
MARION         DRIZZLE   72  70  95 S10       29.85F
MT. VERNON     CLOUDY    73  70  90 S9        29.85S
CENTRALIA*     CLOUDY    73  71  93 SE6       29.83R
SALEM*         CLOUDY    73  72  95 SE6       29.84S
METROPOLIS*    LGT RAIN  73  70  92 S6        29.86F
$$

ILZ067-068-072-073-078-083-087-091-261000-
SOUTHEAST ILLINOIS

CITY           SKY/WX    TMP DP  RH WIND       PRES   REMARKS
LAWRENCEVILLE  CLOUDY    74  71  91 S8        29.87F
FAIRFIELD*     CLOUDY    72  72 100 S5        29.85S
HARRISBURG*    CLOUDY    73  69  89 S7        29.86F
ROBINSON*      MOCLDY    72  71  99 S7        29.88S
CARMI*         CLOUDY    72  72 100 S8        29.86F
$$

ABBREVIATIONS USED IN REMARKS
   TC - TEMPERATURE IN CELSIUS
  WCI - WIND CHILL INDEX
   HX - HEAT INDEX
  VSB - VISIBILITY
$$




USA.gov is the U.S. government's official web portal to all federal, state and local government web resources and services.